Date String (YYYY-MM-DD hh:mm:ss) UTC,Instrument flags,Ambient pressure (hPa),Sample flow (lpm),Bypass flow (lpm),Sample temperature (°C),Ambient temperature (°C),ASC tube jacket temperature (°C),LED temperature (°C),Box temperature (°C),Sample RH (%),Span deviation,Mass concentration (μg/m³),Mass concentration (μg/m³),Mass concentration (μg/m³)
DateTimeUTC,F1_M11,P_M11,Q1_M11,Q2_M11,T1_M11,T2_M11,T3_M11,T4_M11,T5_M11,U1_M11,ZSPAN_M11,X2_M11,X0_M11,X1_M11
2021-09-02 20:00:00,,0825.9,5.00,0.00,29.3,27.4,00.0,38.4,31.0,32.4,0001.4,0012.17,0018.81,0011.62
2021-09-02 20:01:00,,0825.9,5.00,0.00,29.3,27.7,00.0,38.4,31.1,32.4,0001.2,0012.23,0018.89,0011.67
2021-09-02 20:02:00,,0825.9,4.99,0.00,29.3,28.0,00.0,38.4,31.2,32.5,0001.3,0012.29,0018.48,0011.70
2021-09-02 20:03:00,,0825.9,5.01,0.00,29.4,28.2,00.0,38.4,31.2,32.9,0001.2,0012.36,0017.73,0011.73
2021-09-02 20:04:00,,0825.9,5.00,0.00,29.4,28.4,00.0,38.4,31.3,32.8,0001.3,0012.41,0017.85,0011.75
2021-09-02 20:05:00,,0825.9,4.99,0.00,29.5,28.6,00.0,38.4,31.4,31.9,0001.6,0012.41,0017.93,0011.72
2021-09-02 20:06:00,,0826.0,5.00,0.00,29.5,28.7,00.0,38.4,31.4,32.0,0001.6,0012.40,0017.58,0011.67
2021-09-02 20:07:00,,0825.9,5.01,0.00,29.6,28.8,00.0,38.5,31.5,31.7,0001.6,0012.38,0017.09,0011.64
2021-09-02 20:08:00,,0825.9,4.99,0.00,29.6,28.2,00.0,38.5,31.3,31.6,0001.7,0012.30,0017.33,0011.59
2021-09-02 20:09:00,,0825.9,5.01,0.00,29.5,26.5,00.0,38.5,30.9,31.7,0001.7,0012.25,0017.27,0011.54
2021-09-02 20:10:00,,0826.0,5.00,0.00,29.3,25.9,00.0,38.5,30.7,32.0,0001.6,0012.20,0016.97,0011.51
2021-09-02 20:11:00,,0826.0,4.99,0.00,29.2,26.1,00.0,38.5,30.7,32.0,0001.9,0012.14,0016.63,0011.46
2021-09-02 20:12:00,,0826.0,5.00,0.00,29.2,26.6,00.0,38.4,30.8,32.2,0001.8,0012.05,0016.41,0011.42
2021-09-02 20:13:00,,0825.9,5.00,0.00,29.2,27.0,00.0,38.4,30.9,32.2,0001.7,0011.99,0016.37,0011.35
2021-09-02 20:14:00,,0826.0,4.98,0.00,29.2,27.4,00.0,38.4,31.0,32.2,0001.8,0011.88,0016.08,0011.28
2021-09-02 20:15:00,,0826.0,5.00,0.00,29.3,27.8,00.0,38.4,31.1,32.2,0001.8,0011.77,0015.87,0011.20
2021-09-02 20:16:00,,0825.9,5.00,0.00,29.3,28.0,00.0,38.4,31.2,32.1,0001.3,0011.66,0016.02,0011.14
2021-09-02 20:17:00,,0826.0,5.00,0.00,29.4,28.3,00.0,38.4,31.3,32.1,0001.1,0011.57,0016.55,0011.10
2021-09-02 20:18:00,,0826.0,5.00,0.00,29.4,28.4,00.0,38.4,31.3,32.2,0001.1,0011.49,0016.42,0011.04
2021-09-02 20:19:00,,0826.0,5.00,0.00,29.5,28.6,00.0,38.4,31.4,31.9,0001.0,0011.44,0015.59,0010.98
2021-09-02 20:20:00,,0826.0,5.00,0.00,29.5,28.7,00.0,38.4,31.4,32.0,0001.1,0011.40,0015.34,0010.95
2021-09-02 20:21:00,,0826.0,5.00,0.00,29.6,28.6,00.0,38.5,31.4,32.0,0001.0,0011.36,0015.28,0010.90
2021-09-02 20:22:00,,0826.0,5.00,0.00,29.5,27.0,00.0,38.5,31.0,31.8,0000.9,0011.38,0015.43,0010.86
2021-09-02 20:23:00,,0826.0,5.00,0.00,29.4,25.9,00.0,38.5,30.7,32.1,0000.9,0011.37,0015.73,0010.81
2021-09-02 20:24:00,,0826.0,5.01,0.00,29.3,25.9,00.0,38.5,30.7,32.3,0001.2,0011.31,0015.67,0010.77
2021-09-02 20:25:00,,0826.0,5.00,0.00,29.2,26.4,00.0,38.4,30.7,32.6,0001.4,0011.31,0015.73,0010.75
2021-09-02 20:26:00,,0826.0,4.99,0.00,29.2,26.8,00.0,38.4,30.8,32.9,0001.5,0011.31,0016.06,0010.73
2021-09-02 20:27:00,,0826.0,5.01,0.00,29.2,27.3,00.0,38.3,30.9,32.9,0001.6,0011.34,0016.81,0010.73
2021-09-02 20:28:00,,0826.0,5.00,0.00,29.2,27.6,00.0,38.3,31.0,32.9,0001.7,0011.38,0016.64,0010.74
2021-09-02 20:29:00,,0826.0,5.01,0.00,29.3,27.9,00.0,38.3,31.1,32.8,0001.7,0011.45,0016.88,0010.75
2021-09-02 20:30:00,,0826.0,4.98,0.00,29.3,28.2,00.0,38.3,31.2,32.5,0001.7,0011.51,0017.18,0010.76
2021-09-02 20:31:00,,0826.0,5.00,0.00,29.4,28.4,00.0,38.4,31.3,32.4,0001.6,0011.57,0017.34,0010.78
2021-09-02 20:32:00,,0826.0,5.01,0.00,29.4,28.5,00.0,38.4,31.3,32.4,0001.6,0011.63,0017.47,0010.83
2021-09-02 20:33:00,,0826.0,5.01,0.00,29.5,28.7,00.0,38.4,31.4,32.4,0001.5,0011.65,0017.51,0010.86
2021-09-02 20:34:00,,0826.0,5.00,0.00,29.6,28.7,00.0,38.4,31.4,32.3,0001.6,0011.67,0018.14,0010.90
2021-09-02 20:35:00,,0826.0,5.00,0.00,29.5,27.6,00.0,38.5,31.2,32.2,0001.5,0011.74,0018.76,0010.94
2021-09-02 20:36:00,,0826.0,5.00,0.00,29.4,26.1,00.0,38.4,30.8,32.6,0001.3,0011.75,0019.35,0010.97
2021-09-02 20:37:00,,0826.0,5.00,0.00,29.3,25.9,00.0,38.4,30.7,32.8,0000.9,0011.81,0019.99,0011.01
2021-09-02 20:38:00,,0826.0,5.00,0.00,29.2,26.2,00.0,38.4,30.7,32.9,0000.9,0011.84,0019.42,0011.05
2021-09-02 20:39:00,,0826.0,5.01,0.00,29.2,26.7,00.0,38.4,30.8,33.0,0000.9,0011.83,0018.98,0011.08
2021-09-02 20:40:00,,0826.0,4.99,0.00,29.2,27.1,00.0,38.3,30.9,33.0,0000.8,0011.83,0019.04,0011.10
2021-09-02 20:41:00,,0826.0,5.00,0.00,29.2,27.5,00.0,38.3,31.0,33.0,0000.8,0011.82,0019.27,0011.12
2021-09-02 20:42:00,,0826.0,5.01,0.00,29.3,27.8,00.0,38.3,31.1,33.1,0000.9,0011.78,0019.10,0011.12
2021-09-02 20:43:00,,0826.0,5.00,0.00,29.3,28.1,00.0,38.3,31.2,33.0,0001.0,0011.79,0019.69,0011.13
2021-09-02 20:44:00,,0826.0,4.99,0.00,29.4,28.3,00.0,38.3,31.2,33.1,0001.0,0011.79,0020.04,0011.16
2021-09-02 20:45:00,,0826.1,5.01,0.00,29.4,28.5,00.0,38.4,31.3,32.9,0001.2,0011.84,0019.87,0011.19
2021-09-02 20:46:00,,0826.1,5.01,0.00,29.5,28.6,00.0,38.4,31.4,32.9,0000.9,0011.89,0019.37,0011.23
2021-09-02 20:47:00,,0826.1,4.99,0.00,29.5,28.7,00.0,38.4,31.4,32.4,0000.8,0011.91,0019.58,0011.25
2021-09-02 20:48:00,,0826.1,5.01,0.00,29.6,28.1,00.0,38.4,31.3,31.9,0000.9,0011.89,0018.81,0011.24
2021-09-02 20:49:00,,0826.1,4.99,0.00,29.4,26.4,00.0,38.4,30.8,31.8,0001.0,0011.87,0018.30,0011.21
2021-09-02 20:50:00,,0826.1,5.00,0.00,29.3,25.8,00.0,38.4,30.6,32.1,0001.1,0011.87,0018.21,0011.19
2021-09-02 20:51:00,,0826.1,5.00,0.00,29.2,26.0,00.0,38.4,30.7,32.3,0001.1,0011.84,0018.01,0011.15
2021-09-02 20:52:00,,0826.1,5.00,0.00,29.2,26.4,00.0,38.4,30.8,32.3,0001.0,0011.82,0017.67,0011.11
2021-09-02 20:53:00,,0826.1,5.00,0.00,29.2,26.9,00.0,38.3,30.9,32.3,0000.8,0011.79,0018.03,0011.08
2021-09-02 20:54:00,,0826.2,4.99,0.00,29.2,27.3,00.0,38.3,31.0,32.3,0000.7,0011.77,0017.71,0011.02
2021-09-02 20:55:00,,0826.2,5.00,0.00,29.2,27.7,00.0,38.3,31.0,32.1,0000.7,0011.71,0017.24,0010.95
2021-09-02 20:56:00,,0826.2,5.02,0.00,29.3,28.0,00.0,38.3,31.1,32.1,0000.4,0011.62,0017.05,0010.88
2021-09-02 20:57:00,,0826.2,5.00,0.00,29.3,28.2,00.0,38.3,31.2,31.9,0000.6,0011.55,0016.51,0010.81
2021-09-02 20:58:00,,0826.1,5.00,0.00,29.4,28.4,00.0,38.3,31.3,32.1,0000.6,0011.52,0015.92,0010.76
2021-09-02 20:59:00,,0826.2,4.99,0.00,29.4,28.5,00.0,38.4,31.3,31.6,0000.7,0011.47,0015.81,0010.72
